STARLINK-5452, 54772

Orbit data source: Space-Track

STARLINK-5452, 54772 is a payload satellite owned by SpaceX/Seattle (US) in LEO that was launched on Sat, 17 Dec 2022 UTC via an FALCON 9 launch vehicle from the Air Force Eastern Test Range (AFETR). Payload-class satellites include a variety of spacecraft equipped with specific instruments for various scientific and technological missions. These include communications satellites like Starlink; space stations such as the ISS; scientific satellites like the Hubble; Earth observation satellites from companies like Planet Labs, Umbra, and HawkEye 360; GPS; miniature CubeSats for education and research; and military/defense satellites.

Loading next visibility...
Identifier
54772, 2022-175Q
Orbit
LEO
Country
Flag of USUS
Related business
Manufacturer
SpaceX/Seattle
Mission
Operational Commercial Communications
Bus & Motor
STARLINK, Unknown motor
Mass
305 kg wet, ~290 kg dry
Launch date (UTC)
2022-12-17 (4 years ago)
Launch vehicle
FALCON 9
Launch site
Air Force Eastern Test Range (AFETR)
Object type
Payload
Rocket body
Debris
Shape & HBR
Box + 1 Pan, 10.1 m
Radar Cross Section
13.562 m², Large (>1 m²)

Expand to show TLE details & history
Last TLE update: 3 days ago

TLE from 3 days ago
0 STARLINK-5452
1 54772U 22175Q   26170.60758434  .00001564  00000-0  11635-3 0  9990
2 54772  53.1601 291.6244 0001318  93.1347 266.9795 15.08840707195516
Epoch: 2026-06-19T14:34Z
TLE epoch observation values (Epoch: 2026-06-19T14:34:55.286Z)
Latitude
-0.00007°
Longitude
165.05986°
Altitude
540.681 km
Speed
7.593 km/s
True Right ascension
19h 26m 29s
True Declination
0° 00' 00"
Sunlit
Object was in full shadow at epoch
Visualization orbit readout
Latitude
Unknown
Longitude
Unknown
Altitude
Unknown
Speed
Unknown
Apparent Right ascension
Unknown
Apparent Declination
Unknown
Sunlit
N/A
Visualization observer readout
Local Sidereal Time
00:39:33
Azimuth
Unknown
Elevation
Unknown
Doppler factor
Unknown
Orbital elements
Apogee altitude
540.907 km
Perigee altitude
539.084 km
Semi-major axis
6,918.132 km
Eccentricity
0.00013
Inclination
53.1601°
RAAN
291.6244°
Arg. of periapsis
93.1347°
True anomaly
266.96442°
Mean anomaly
266.9795°
Eccentric anomaly
266.97196°
Mean motion
3.7719 °/min
Orbital period
95.44 mins
BSTAR
0.00011635
Loading maneuver chart data...
Computing Atmospheric mass density...
Loading historical data...
Loading historical data...
Loading historical data...
Loading historical data...
Loading historical data...
Loading historical data...
Loading historical data...

Documentation

Showing up to 5 results
|